Time,TemperatureF,DewpointF,PressureIn,WindDirection,WindDirectionDegrees,WindSpeedMPH,WindSpeedGustMPH,Humidity,HourlyPrecipIn,Conditions,Clouds,dailyrainin,SolarRadiationWatts/m^2,SoftwareType,DateUTC
2013-02-11 00:02:00,40.0,37.0,30.42,SSE,151,5.0,13.0,89,0.18,,,0.24,1.000000,,2013-02-11 00:02:00,
2013-02-11 00:10:00,40.0,38.0,30.49,ESE,118,7.0,16.0,93,0.17,,,0.41,0.000000,,2013-02-11 00:10:00,
2013-02-11 00:42:00,40.0,38.0,30.49,ESE,118,7.0,16.0,93,0.17,,,0.41,0.000000,,2013-02-11 00:42:00,
2013-02-11 00:52:00,40.0,38.0,30.49,ESE,118,7.0,16.0,93,0.17,,,0.41,0.000000,,2013-02-11 00:52:00,
2013-02-11 01:01:00,40.0,38.0,30.49,ESE,118,7.0,16.0,93,0.17,,,0.41,0.000000,,2013-02-11 01:01:00,
2013-02-11 02:10:00,41.0,40.0,30.58,ESE,114,5.0,17.0,97,-99.99,,,0.71,0.000000,,2013-02-11 02:10:00,
2013-02-11 02:42:00,41.0,40.0,30.58,ESE,114,5.0,17.0,97,-99.99,,,0.71,0.000000,,2013-02-11 02:42:00,
2013-02-11 02:52:00,41.0,40.0,30.58,ESE,114,5.0,17.0,97,-99.99,,,0.71,0.000000,,2013-02-11 02:52:00,
2013-02-11 03:02:00,41.0,40.0,30.58,ESE,114,5.0,17.0,97,-99.99,,,0.71,0.000000,,2013-02-11 03:02:00,
2013-02-11 03:10:00,44.0,43.0,30.62,ESE,111,11.0,29.0,98,0.17,,,0.88,0.000000,,2013-02-11 03:10:00,
2013-02-11 03:32:00,44.0,43.0,30.62,ESE,111,11.0,29.0,98,0.17,,,0.88,0.000000,,2013-02-11 03:32:00,
2013-02-11 03:42:00,44.0,43.0,30.62,ESE,111,11.0,29.0,98,0.17,,,0.88,0.000000,,2013-02-11 03:42:00,
2013-02-11 03:52:00,44.0,43.0,30.62,ESE,111,11.0,29.0,98,0.17,,,0.88,0.000000,,2013-02-11 03:52:00,
2013-02-11 04:02:00,44.0,43.0,30.62,ESE,111,11.0,29.0,98,0.17,,,0.88,0.000000,,2013-02-11 04:02:00,
2013-02-11 04:10:00,47.0,46.0,30.61,ESE,108,10.0,27.0,98,0.03,,,0.91,0.000000,,2013-02-11 04:10:00,
2013-02-11 04:32:00,47.0,46.0,30.61,ESE,108,10.0,27.0,98,0.03,,,0.91,0.000000,,2013-02-11 04:32:00,
2013-02-11 04:42:00,47.0,46.0,30.61,ESE,108,10.0,27.0,98,0.03,,,0.91,0.000000,,2013-02-11 04:42:00,
2013-02-11 04:52:00,47.0,46.0,30.61,ESE,108,10.0,27.0,98,0.03,,,0.91,0.000000,,2013-02-11 04:52:00,
2013-02-11 05:02:00,47.0,46.0,30.61,ESE,108,10.0,27.0,98,0.03,,,0.91,0.000000,,2013-02-11 05:02:00,
2013-02-11 05:10:00,48.0,46.0,30.55,ESE,115,9.0,27.0,92,0.00,,,0.91,0.000000,,2013-02-11 05:10:00,
2013-02-11 05:42:00,48.0,46.0,30.55,ESE,115,9.0,27.0,92,0.00,,,0.91,0.000000,,2013-02-11 05:42:00,
2013-02-11 05:53:00,48.0,46.0,30.55,ESE,115,9.0,27.0,92,0.00,,,0.91,0.000000,,2013-02-11 05:53:00,
2013-02-11 06:02:00,48.0,46.0,30.55,ESE,115,9.0,27.0,92,0.00,,,0.91,0.000000,,2013-02-11 06:02:00,
2013-02-11 06:10:00,47.0,45.0,30.51,WSW,254,5.0,20.0,94,0.03,,,0.94,0.000000,,2013-02-11 06:10:00,
2013-02-11 06:42:00,47.0,45.0,30.51,WSW,254,5.0,20.0,94,0.03,,,0.94,0.000000,,2013-02-11 06:42:00,
2013-02-11 06:52:00,47.0,45.0,30.51,WSW,254,5.0,20.0,94,0.03,,,0.94,0.000000,,2013-02-11 06:52:00,
2013-02-11 07:02:00,47.0,45.0,30.51,WSW,254,5.0,20.0,94,0.03,,,0.94,0.000000,,2013-02-11 07:02:00,
2013-02-11 07:10:00,48.0,47.0,30.46,East,82,4.0,14.0,97,0.03,,,0.97,0.000000,,2013-02-11 07:10:00,
2013-02-11 07:42:00,48.0,47.0,30.46,East,82,4.0,14.0,97,0.03,,,0.97,0.000000,,2013-02-11 07:42:00,
2013-02-11 07:52:00,48.0,47.0,30.46,East,82,4.0,14.0,97,0.03,,,0.97,0.000000,,2013-02-11 07:52:00,
2013-02-11 08:01:00,48.0,47.0,30.46,East,82,4.0,14.0,97,0.03,,,0.97,0.000000,,2013-02-11 08:01:00,
2013-02-11 08:10:00,47.0,46.0,30.44,East,82,3.0,15.0,97,0.01,,,0.98,0.000000,,2013-02-11 08:10:00,
2013-02-11 08:42:00,47.0,46.0,30.44,East,82,3.0,15.0,97,0.01,,,0.98,0.000000,,2013-02-11 08:42:00,
2013-02-11 08:52:00,47.0,46.0,30.44,East,82,3.0,15.0,97,0.01,,,0.98,0.000000,,2013-02-11 08:52:00,
2013-02-11 09:02:00,47.0,46.0,30.44,East,82,3.0,15.0,97,0.01,,,0.98,0.000000,,2013-02-11 09:02:00,
2013-02-11 09:10:00,49.0,48.0,30.44,West,281,2.0,9.0,95,0.02,,,1.00,0.000000,,2013-02-11 09:10:00,
2013-02-11 09:32:00,49.0,48.0,30.44,West,281,2.0,9.0,95,0.02,,,1.00,0.000000,,2013-02-11 09:32:00,
2013-02-11 09:42:00,49.0,48.0,30.44,West,281,2.0,9.0,95,0.02,,,1.00,0.000000,,2013-02-11 09:42:00,
2013-02-11 09:52:00,49.0,48.0,30.44,West,281,2.0,9.0,95,0.02,,,1.00,0.000000,,2013-02-11 09:52:00,
2013-02-11 10:02:00,49.0,48.0,30.44,West,281,2.0,9.0,95,0.02,,,1.00,0.000000,,2013-02-11 10:02:00,
2013-02-11 10:10:00,47.0,46.0,30.43,NNE,23,3.0,6.0,97,0.09,,,1.09,0.000000,,2013-02-11 10:10:00,
2013-02-11 10:42:00,47.0,46.0,30.43,NNE,23,3.0,6.0,97,0.09,,,1.09,0.000000,,2013-02-11 10:42:00,
2013-02-11 10:52:00,47.0,46.0,30.43,NNE,23,3.0,6.0,97,0.09,,,1.09,0.000000,,2013-02-11 10:52:00,
2013-02-11 11:02:00,47.0,46.0,30.43,NNE,23,3.0,6.0,97,0.09,,,1.09,0.000000,,2013-02-11 11:02:00,
2013-02-11 11:10:00,47.0,47.0,30.40,ENE,74,3.0,10.0,99,0.01,,,1.10,0.000000,,2013-02-11 11:10:00,
2013-02-11 11:42:00,47.0,47.0,30.40,ENE,74,3.0,10.0,99,0.01,,,1.10,0.000000,,2013-02-11 11:42:00,
2013-02-11 11:52:00,47.0,47.0,30.40,ENE,74,3.0,10.0,99,0.01,,,1.10,0.000000,,2013-02-11 11:52:00,
2013-02-11 12:03:00,47.0,47.0,30.40,ENE,74,3.0,10.0,99,0.01,,,1.10,0.000000,,2013-02-11 12:03:00,
2013-02-11 12:10:00,49.0,49.0,30.40,NW,313,2.0,9.0,99,0.01,,,-99.99,0.000000,,2013-02-11 12:10:00,
2013-02-11 12:32:00,49.0,49.0,30.40,NW,313,2.0,9.0,99,0.01,,,-99.99,0.000000,,2013-02-11 12:32:00,
2013-02-11 12:42:00,49.0,49.0,30.40,NW,313,2.0,9.0,99,0.01,,,-99.99,0.000000,,2013-02-11 12:42:00,
2013-02-11 12:52:00,49.0,49.0,30.40,NW,313,2.0,9.0,99,0.01,,,-99.99,0.000000,,2013-02-11 12:52:00,
2013-02-11 13:02:00,49.0,49.0,30.40,NW,313,2.0,9.0,99,0.01,,,-99.99,0.000000,,2013-02-11 13:02:00,
2013-02-11 13:10:00,48.0,48.0,30.43,East,81,2.0,8.0,99,0.00,,,-99.99,2.000000,,2013-02-11 13:10:00,
2013-02-11 13:42:00,48.0,48.0,30.43,East,81,2.0,8.0,99,0.00,,,-99.99,2.000000,,2013-02-11 13:42:00,
2013-02-11 13:52:00,48.0,48.0,30.43,East,81,2.0,8.0,99,0.00,,,-99.99,2.000000,,2013-02-11 13:52:00,
2013-02-11 14:02:00,48.0,48.0,30.43,East,81,2.0,8.0,99,0.00,,,-99.99,2.000000,,2013-02-11 14:02:00,
2013-02-11 14:10:00,48.0,48.0,30.45,NE,42,2.0,6.0,99,0.00,,,-99.99,27.000000,,2013-02-11 14:10:00,
2013-02-11 14:42:00,48.0,48.0,30.45,NE,42,2.0,6.0,99,0.00,,,-99.99,27.000000,,2013-02-11 14:42:00,
2013-02-11 14:53:00,48.0,48.0,30.45,NE,42,2.0,6.0,99,0.00,,,-99.99,27.000000,,2013-02-11 14:53:00,
2013-02-11 15:02:00,48.0,48.0,30.45,NE,42,2.0,6.0,99,0.00,,,-99.99,27.000000,,2013-02-11 15:02:00,
2013-02-11 15:10:00,52.0,52.0,30.51,NNW,334,1.0,4.0,99,0.01,,,1.12,100.000000,,2013-02-11 15:10:00,
2013-02-11 15:42:00,52.0,52.0,30.51,NNW,334,1.0,4.0,99,0.01,,,1.12,100.000000,,2013-02-11 15:42:00,
2013-02-11 15:52:00,52.0,52.0,30.51,NNW,334,1.0,4.0,99,0.01,,,1.12,100.000000,,2013-02-11 15:52:00,
2013-02-11 16:02:00,52.0,52.0,30.51,NNW,334,1.0,4.0,99,0.01,,,1.12,100.000000,,2013-02-11 16:02:00,
2013-02-11 16:10:00,52.0,51.0,30.47,North,3,2.0,4.0,98,0.00,,,1.12,80.000000,,2013-02-11 16:10:00,
2013-02-11 16:32:00,52.0,51.0,30.47,North,3,2.0,4.0,98,0.00,,,1.12,80.000000,,2013-02-11 16:32:00,
2013-02-11 16:42:00,52.0,51.0,30.47,North,3,2.0,4.0,98,0.00,,,1.12,80.000000,,2013-02-11 16:42:00,
2013-02-11 16:53:00,52.0,51.0,30.47,North,3,2.0,4.0,98,0.00,,,1.12,80.000000,,2013-02-11 16:53:00,
2013-02-11 17:02:00,52.0,51.0,30.47,North,3,2.0,4.0,98,0.00,,,1.12,80.000000,,2013-02-11 17:02:00,
2013-02-11 17:10:00,51.0,51.0,30.41,WNW,299,6.0,10.0,99,0.00,,,1.12,49.000000,,2013-02-11 17:10:00,
2013-02-11 17:42:00,51.0,51.0,30.41,WNW,299,6.0,10.0,99,0.00,,,1.12,49.000000,,2013-02-11 17:42:00,
2013-02-11 17:53:00,51.0,51.0,30.41,WNW,299,6.0,10.0,99,0.00,,,1.12,49.000000,,2013-02-11 17:53:00,
2013-02-11 18:02:00,51.0,51.0,30.41,WNW,299,6.0,10.0,99,0.00,,,1.12,49.000000,,2013-02-11 18:02:00,
2013-02-11 18:10:00,51.0,51.0,30.39,WNW,284,3.0,14.0,99,0.00,,,1.12,52.000000,,2013-02-11 18:10:00,
2013-02-11 18:42:00,51.0,51.0,30.39,WNW,284,3.0,14.0,99,0.00,,,1.12,52.000000,,2013-02-11 18:42:00,
2013-02-11 18:54:00,51.0,51.0,30.39,WNW,284,3.0,14.0,99,0.00,,,1.12,52.000000,,2013-02-11 18:54:00,
2013-02-11 19:02:00,51.0,51.0,30.39,WNW,284,3.0,14.0,99,0.00,,,1.12,52.000000,,2013-02-11 19:02:00,
2013-02-11 20:10:00,52.0,47.0,30.45,NW,305,3.0,11.0,82,-99.99,,,1.12,186.000000,,2013-02-11 20:10:00,
2013-02-11 20:42:00,52.0,47.0,30.45,NW,305,3.0,11.0,82,-99.99,,,1.12,186.000000,,2013-02-11 20:42:00,
2013-02-11 20:52:00,52.0,47.0,30.45,NW,305,3.0,11.0,82,-99.99,,,1.12,186.000000,,2013-02-11 20:52:00,
2013-02-11 21:02:00,52.0,47.0,30.45,NW,305,3.0,11.0,82,-99.99,,,1.12,186.000000,,2013-02-11 21:02:00,
2013-02-11 21:10:00,51.0,41.0,30.38,NW,305,6.0,12.0,69,0.00,,,1.12,125.000000,,2013-02-11 21:10:00,
2013-02-11 21:32:00,51.0,41.0,30.38,NW,305,6.0,12.0,69,0.00,,,1.12,125.000000,,2013-02-11 21:32:00,
2013-02-11 21:42:00,51.0,41.0,30.38,NW,305,6.0,12.0,69,0.00,,,1.12,125.000000,,2013-02-11 21:42:00,
2013-02-11 21:52:00,51.0,41.0,30.38,NW,305,6.0,12.0,69,0.00,,,1.12,125.000000,,2013-02-11 21:52:00,
2013-02-11 22:02:00,51.0,41.0,30.38,NW,305,6.0,12.0,69,0.00,,,1.12,125.000000,,2013-02-11 22:02:00,
2013-02-11 22:10:00,49.0,38.0,30.30,NW,320,5.0,12.0,65,0.00,,,1.06,67.000000,,2013-02-11 22:10:00,
2013-02-11 22:32:00,49.0,38.0,30.30,NW,320,5.0,12.0,65,0.00,,,1.06,67.000000,,2013-02-11 22:32:00,
2013-02-11 22:42:00,49.0,38.0,30.30,NW,320,5.0,12.0,65,0.00,,,1.06,67.000000,,2013-02-11 22:42:00,
2013-02-11 22:52:00,49.0,38.0,30.30,NW,320,5.0,12.0,65,0.00,,,1.06,67.000000,,2013-02-11 22:52:00,
2013-02-11 23:02:00,49.0,38.0,30.30,NW,320,5.0,12.0,65,0.00,,,1.06,67.000000,,2013-02-11 23:02:00,
2013-02-11 23:10:00,47.0,35.0,30.27,NNW,328,5.0,12.0,63,0.00,,,0.88,19.000000,,2013-02-11 23:10:00,
2013-02-11 23:32:00,47.0,35.0,30.27,NNW,328,5.0,12.0,63,0.00,,,0.88,19.000000,,2013-02-11 23:32:00,
2013-02-11 23:42:00,47.0,35.0,30.27,NNW,328,5.0,12.0,63,0.00,,,0.88,19.000000,,2013-02-11 23:42:00,
2013-02-11 23:52:00,47.0,35.0,30.27,NNW,328,5.0,12.0,63,0.00,,,0.88,19.000000,,2013-02-11 23:52:00,